This is the latest recevied weather packets stored in our database for station/object DH1NAI-6. If no packets are shown the sender has not sent any weather packets the latest 10 day(s).
| Time | Temp. | Humidity | Pressure | Rain* | Wind** | Luminosity | Snow |
|---|---|---|---|---|---|---|---|
| 1788079123 | 18.89° C | 79% | 1013.1 hPa | 0 mm | - | 69 W/m² | - |
| 1788078511 | 19.44° C | 78% | 1013.4 hPa | 0 mm | - | 100 W/m² | - |
| 1788077907 | 19.44° C | 78% | 1013.3 hPa | 0 mm | - | 67 W/m² | - |
| 1788077298 | 18.89° C | 79% | 1013.1 hPa | 0 mm | - | 94 W/m² | - |
| 1788076674 | 19.44° C | 79% | 1013 hPa | 0 mm | - | 62 W/m² | - |
| 1788076051 | 18.89° C | 80% | 1013.1 hPa | 0 mm | - | 105 W/m² | - |
| 1788075443 | 18.33° C | 82% | 1012.9 hPa | 0 mm | - | 70 W/m² | - |
| 1788074819 | 18.33° C | 84% | 1012.9 hPa | 0 mm | - | 95 W/m² | - |
| 1788074211 | 18.33° C | 83% | 1012.8 hPa | 0 mm | - | 44 W/m² | - |
| 1788073603 | 18.33° C | 81% | 1012.8 hPa | 0 mm | - | 49 W/m² | - |
| 1788072994 | 17.78° C | 83% | 1013 hPa | 0 mm | - | 70 W/m² | - |
| 1788072391 | 17.22° C | 86% | 1012.8 hPa | 0 mm | - | 55 W/m² | - |
| 1788071778 | 16.67° C | 87% | 1012.8 hPa | 0 mm | - | 31 W/m² | - |
| 1788071171 | 16.67° C | 87% | 1012.7 hPa | 0 mm | - | 27 W/m² | - |
| 1788070562 | 16.67° C | 88% | 1012.6 hPa | 0 mm | - | 24 W/m² | - |
| 1788069955 | 16.67° C | 88% | 1012.5 hPa | 0 mm | - | 22 W/m² | - |
| 1788069346 | 16.67° C | 87% | 1012.8 hPa | 0 mm | - | 15 W/m² | - |
| 1788068739 | 16.67° C | 86% | 1012.7 hPa | 0 mm | - | 14 W/m² | - |
| 1788068131 | 16.67° C | 87% | 1012.7 hPa | 0 mm | - | 11 W/m² | - |
| 1788067523 | 16.11° C | 86% | 1012.7 hPa | 0 mm | - | 10 W/m² | - |
| 1788066915 | 16.11° C | 87% | 1012.5 hPa | 0 mm | - | 6 W/m² | - |
| 1788066307 | 16.11° C | 86% | 1012.5 hPa | 0 mm | - | 7 W/m² | - |
| 1788065699 | 16.67° C | 86% | 1012.4 hPa | 0 mm | - | 4 W/m² | - |
| 1788065091 | 16.67° C | 85% | 1012.6 hPa | 0 mm | - | 2 W/m² | - |
| 1788064483 | 16.11° C | 85% | 1012.6 hPa | 0 mm | - | 1 W/m² | - |
* Rain latest hour (hover to see other rain measurements)
** Current wind speed in m/s (hover to see current wind gust speed)